Fernwood, MS

12:39 AM CST on January 21, 2017 (GMT -0600)
McComb

Weather History for KMCB - July, 2013

Change the Weather History Date:

Wednesday, July 3, 2013

  Actual Average Record
Temperature  
Mean Temperature 76 °F -  
Max Temperature 88 °F 92 °F 99 °F (1960)
Min Temperature 69 °F 69 °F 65 °F (1972)
Cooling Degree Days 12    
Growing Degree Days 26 (Base 50)    
Moisture  
Dew Point 67 °F    
Average Humidity 74    
Maximum Humidity 90    
Minimum Humidity 53    
Precipitation  
Precipitation 0.04 in - - ()
Sea Level Pressure  
Sea Level Pressure 30.00 in    
Wind  
Wind Speed 3 mph (North)    
Max Wind Speed 9 mph    
Max Gust Speed 18 mph    
Visibility 10 miles    
Events Rain , Thunderstorm    
Averages and records for this station are not official NWS values.
T = Trace of Precipitation, MM = Missing Value Source: NWS Daily Summary

Daily Weather History Graph

Daily Weather History Graph

Search for Another Location

Airport or City:

Trip Planner

Search our weather history database for the weather conditions in past years. The results will help you decide how hot, cold, wet, or windy it might be!

Date:

Astronomy

Jul. 03, 2013 Rise Set
Actual Time 6:02 AM CDT 8:09 PM CDT
Civil Twilight 5:34 AM CDT 8:37 PM CDT
Nautical Twilight 5:00 AM CDT 9:11 PM CDT
Astronomical Twilight 4:24 AM CDT 9:47 PM CDT
Moon 2:32 AM CDT (7/3) 4:26 PM CDT (7/3)
Length of Visible Light 15h 02m
Length of Day
14h 07m
Waning Crescent, 18% of the Moon is Illuminated
Jul 3
Waning Crescent
Jul 8
New
Jul 15
First Quarter
Jul 22
Full
Jul 29
Last Quarter

Hourly Weather History & Observations

Time (CDT) Temp. Heat Index Dew Point Humidity Pressure Visibility Wind Dir Wind Speed Gust Speed Precip Events Conditions
12:53 AM 69.1 °F - 64.0 °F 84% 30.01 in 10.0 mi Calm Calm - N/A   Clear
1:53 AM 71.1 °F - 64.0 °F 78% 29.99 in 10.0 mi Calm Calm - N/A   Clear
2:53 AM 71.1 °F - 64.0 °F 78% 29.98 in 10.0 mi NNE 3.5 mph - N/A   Clear
3:53 AM 71.1 °F - 63.0 °F 75% 29.99 in 10.0 mi North 5.8 mph - N/A   Partly Cloudy
4:53 AM 71.1 °F - 62.1 °F 73% 29.99 in 10.0 mi North 4.6 mph - N/A   Overcast
5:53 AM 71.1 °F - 63.0 °F 75% 30.01 in 10.0 mi NNE 4.6 mph - N/A   Overcast
6:53 AM 71.1 °F - 63.0 °F 75% 30.01 in 9.0 mi North 4.6 mph - N/A   Scattered Clouds
7:53 AM 73.0 °F - 64.0 °F 73% 30.03 in 10.0 mi NNE 5.8 mph - N/A   Partly Cloudy
8:53 AM 78.1 °F - 66.0 °F 66% 30.04 in 10.0 mi Variable 4.6 mph - N/A   Clear
9:53 AM 80.1 °F 82.7 °F 68.0 °F 67% 30.04 in 10.0 mi Variable 4.6 mph - N/A   Clear
10:53 AM 82.9 °F 85.8 °F 68.0 °F 60% 30.04 in 10.0 mi Variable 4.6 mph - N/A   Scattered Clouds
11:53 AM 84.0 °F 86.5 °F 66.9 °F 56% 30.02 in 10.0 mi Variable 4.6 mph - N/A   Partly Cloudy
12:53 PM 84.0 °F 86.3 °F 66.0 °F 55% 30.01 in 10.0 mi North 5.8 mph - N/A   Overcast
1:53 PM 84.0 °F 85.8 °F 64.9 °F 53% 29.99 in 10.0 mi ENE 4.6 mph - N/A   Scattered Clouds
2:53 PM 84.9 °F 87.1 °F 66.0 °F 53% 29.97 in 10.0 mi Variable 4.6 mph - N/A   Mostly Cloudy
3:53 PM 79.0 °F - 66.9 °F 66% 29.97 in 10.0 mi ENE 5.8 mph - 0.00 in Thunderstorm Mostly Cloudy
4:53 PM 75.0 °F - 66.0 °F 73% 29.99 in 10.0 mi North 6.9 mph 18.4 mph 0.01 in   Overcast
5:01 PM 75.2 °F - 66.2 °F 73% 30.00 in 10.0 mi North 6.9 mph - 0.00 in Rain , Thunderstorm Light Rain
5:26 PM 73.4 °F - 69.8 °F 88% 30.00 in 4.0 mi WNW 9.2 mph - 0.02 in Rain Rain
5:53 PM 73.0 °F - 70.0 °F 90% 29.97 in 9.0 mi North 4.6 mph - 0.03 in   Overcast
6:53 PM 75.9 °F - 70.0 °F 82% 29.96 in 10.0 mi NNW 3.5 mph - N/A   Scattered Clouds
7:53 PM 77.0 °F - 69.1 °F 76% 29.96 in 10.0 mi North 3.5 mph - N/A   Clear
8:53 PM 73.9 °F - 70.0 °F 87% 29.98 in 10.0 mi Calm Calm - N/A   Partly Cloudy
9:53 PM 73.0 °F - 70.0 °F 90% 29.98 in 9.0 mi Calm Calm - N/A   Clear
10:53 PM 73.9 °F - 69.1 °F 85% 29.99 in 9.0 mi Calm Calm - N/A   Clear
11:53 PM 73.9 °F - 70.0 °F 87% 29.99 in 9.0 mi North 3.5 mph - N/A   Clear